This is the latest recevied weather packets stored in our database for station/object VA5EVR-13. If no packets are shown the sender has not sent any weather packets the latest 10 day(s).
| Time | Temp. | Humidity | Pressure | Rain* | Wind** | Luminosity | Snow |
|---|---|---|---|---|---|---|---|
| 1777461012 | -2.22° C | 83% | 88.8 hPa | 0 mm | - | - | - |
| 1777460412 | -2.22° C | 83% | 88.8 hPa | 0 mm | - | - | - |
| 1777459812 | -2.22° C | 83% | 88.8 hPa | 0 mm | - | - | - |
| 1777459211 | -2.22° C | 83% | 88.8 hPa | 0 mm | - | - | - |
| 1777458612 | -2.22° C | 84% | 88.8 hPa | 0 mm | - | - | - |
| 1777458012 | -2.22° C | 85% | 88.8 hPa | 0 mm | - | - | - |
| 1777456813 | -2.78° C | 88% | 88.8 hPa | 0 mm | - | - | - |
| 1777456212 | -3.33° C | 92% | 88.8 hPa | 0 mm | - | - | - |
| 1777455611 | -3.33° C | 92% | 88.8 hPa | 0 mm | - | - | - |
| 1777455013 | -3.33° C | 92% | 88.8 hPa | 0 mm | - | - | - |
| 1777454412 | -3.89° C | 92% | 88.8 hPa | 0 mm | - | - | - |
| 1777453812 | -3.89° C | 92% | 88.8 hPa | 0 mm | - | - | - |
| 1777452611 | -3.89° C | 94% | 88.8 hPa | 0 mm | - | - | - |
| 1777452011 | -3.89° C | 94% | 88.8 hPa | 0 mm | - | - | - |
| 1777451412 | -3.89° C | 93% | 88.8 hPa | 0 mm | - | - | - |
| 1777450812 | -4.44° C | 93% | 88.8 hPa | 0 mm | - | - | - |
| 1777450211 | -4.44° C | 93% | 88.8 hPa | 0 mm | - | - | - |
| 1777449612 | -4.44° C | 94% | 88.8 hPa | 0 mm | - | - | - |
| 1777449011 | -5° C | 93% | 88.8 hPa | 0 mm | - | - | - |
| 1777448411 | -4.44° C | 92% | 88.8 hPa | 0 mm | - | - | - |
| 1777447812 | -4.44° C | 91% | 88.8 hPa | 0 mm | - | - | - |
| 1777447212 | -4.44° C | 91% | 88.8 hPa | 0 mm | - | - | - |
| 1777446611 | -3.89° C | 91% | 88.8 hPa | 0 mm | - | - | - |
| 1777446012 | -3.89° C | 91% | 88.8 hPa | 0 mm | - | - | - |
| 1777445412 | -3.89° C | 91% | 88.8 hPa | 0 mm | - | - | - |
* Rain latest hour (hover to see other rain measurements)
** Current wind speed in m/s (hover to see current wind gust speed)